Location: Dana
(41.8364°N, 106.7042°W)
Time: 01:21:32
(UTC+00:00)

Transit 4A - Pass Details

Date: 12 May 2026
Orbit: 860 x 980 km, 66.8° (Epoch: 6 June)

Event Time Altitude Azimuth Distance (km) Brightness Sun altitude
Rises 00:01:15 0° 333° (NNW) 3,684 11.4 23.3°
Reaches altitude 10° 00:03:57 10° 339° (NNW) 2,738 10.8 22.8°
Maximum altitude 00:10:07 47° 53° (NE) 1,281 8.6 21.7°
Drops below altitude 10° 00:16:13 10° 126° (SE) 2,708 9.9 20.6°
Sets 00:18:52 0° 132° (SE) 3,640 10.5 20.1°
